UOSAT 2 (UO-11)

Last updated on Thu Oct 30 2025 00:03:10 GMT+0000 (Coordinated Universal Time)

1 14781U 84021B 25302.47159759 .00002184 00000+0 23259-3 0 9993 2 14781 97.7745 266.2113 0006474 218.1262 141.9499 14.89915803222760
UTC large
Height (km)
Speed (km/s)
/
Latitude / Longitude
Inclination (degrees)
Orbital Period (minutes)
Azimuth
Elevation
Range (km)
Doppler Factor

Next 0 passes for location: London (51.5072 / 0.1276)

Sorry there are no passes over London.